Tracking 18980 objects as of 20-Feb-2018
HD Live streaming from Space Station
objects crossing your sky now

FENGYUN 1C DEB

Track FENGYUN 1C DEB now!
10-day predictions


NORAD ID: 30311
Int'l Code: 1999-025ZY
Perigee: 862.2 km
Apogee: 1,108.2 km
Inclination: 98.9 °
Period: 104.7 minutes
Semi major axis: 7356 km
RCS: 0.043 m2 (small)
Launch date: May 10, 1999
Source: People's Republic of China (PRC)
Launch site: Taiyaun Space Center, China (TSC)

Note: This is SATELLITE DEBRIS
aabbcc
Your satellite tracking list
Your tracking list is empty




NASA's NSSDC Master Catalog

Two Line Element Set (TLE):
1 30311U 99025ZY  18050.53015649  .00000031  00000-0  66997-4 0  9995
2 30311  98.9323 254.4120 0167206 213.0847 201.2477 13.76014614557169
Source of the keplerian elements: AFSPC